Weather History for Lebanon, NH

Change the Weather History Date:

Friday, February 8, 2013

  Actual Average Record
Temperature  
Mean Temperature 21 °F -  
Max Temperature 23 °F 29 °F 54 °F (1933)
Min Temperature 19 °F 6 °F -20 °F (1950)
Degree Days  
Heating Degree Days 44    
Moisture  
Dew Point 13 °F    
Average Humidity 73    
Maximum Humidity 89    
Minimum Humidity 35    
Precipitation  
Precipitation 0.42 in - - ()
Sea Level Pressure  
Sea Level Pressure 30.17 in    
Wind  
Wind Speed 3 mph (NNE)    
Max Wind Speed 10 mph    
Max Gust Speed 18 mph    
Visibility 3 miles    
Events Fog , Snow    
Averages and records for this station are not official NWS values.
T = Trace of Precipitation, MM = Missing Value Source: NWS Daily Summary

Daily Weather History Graph

Daily Weather History Graph

Search for Another Location

Airport:

Trip Planner

Search our weather history database for the weather conditions in past years. The results will help you decide how hot, cold, wet, or windy it might be!

Date:

Astronomy

Feb. 08, 2013 Rise Set
Actual Time 6:57 AM EST 5:10 PM EST
Civil Twilight 6:27 AM EST 5:40 PM EST
Nautical Twilight 5:53 AM EST 6:14 PM EST
Astronomical Twilight 5:19 AM EST 6:47 PM EST
Moon 5:25 AM EST (2/8) 3:39 PM EST (2/8)
Length of Visible Light 11h 13m
Length of Day
10h 13m
Waning Crescent, 3% of the Moon is Illuminated
Feb 8
Waning Crescent
Feb 10
New
Feb 17
First Quarter
Feb 25
Full
Mar 4
Last Quarter

Hourly Weather History & Observations

Time (EST) Temp. Windchill Dew Point Humidity Pressure Visibility Wind Dir Wind Speed Gust Speed Precip Events Conditions
12:53 AM 19.0 °F - -2.0 °F 40% 30.46 in 10.0 mi Calm Calm - N/A   Overcast
1:53 AM 21.0 °F 16.2 °F -2.9 °F 35% 30.44 in 10.0 mi Variable 3.5 mph - N/A   Overcast
2:53 AM 21.9 °F - -2.0 °F 35% 30.42 in 10.0 mi Calm Calm - N/A   Overcast
3:53 AM 21.0 °F 16.2 °F 3.0 °F 46% 30.38 in 10.0 mi Variable 3.5 mph - N/A   Overcast
4:53 AM 21.0 °F - 6.1 °F 53% 30.37 in 10.0 mi Calm Calm - N/A   Overcast
5:08 AM 19.4 °F 14.3 °F 6.8 °F 58% 30.33 in 10.0 mi NE 3.5 mph - N/A   Overcast
5:53 AM 19.9 °F - 10.0 °F 65% 30.37 in 3.0 mi Calm Calm - 0.00 in Snow Light Snow
6:44 AM 19.4 °F - 12.2 °F 74% 30.31 in 2.5 mi Calm Calm - 0.00 in Snow Light Snow
6:53 AM 19.9 °F - 12.9 °F 74% 30.36 in 2.0 mi Calm Calm - 0.00 in Snow Light Snow
7:06 AM 19.4 °F 14.3 °F 14.0 °F 80% 30.31 in 1.5 mi North 3.5 mph - 0.00 in Snow Light Snow
7:30 AM 19.4 °F 12.8 °F 14.0 °F 80% 30.31 in 0.8 mi North 4.6 mph - 0.01 in Snow Light Snow
7:53 AM 19.0 °F 13.9 °F 15.1 °F 85% 30.36 in 0.8 mi Variable 3.5 mph - 0.02 in Snow Light Snow
8:05 AM 19.4 °F 12.8 °F 12.2 °F 74% 30.31 in 1.2 mi Variable 4.6 mph - 0.00 in Snow Light Snow
8:15 AM 19.4 °F 14.3 °F 12.2 °F 74% 30.31 in 2.0 mi Variable 3.5 mph - 0.00 in Snow Light Snow
8:53 AM 19.0 °F 13.9 °F 14.0 °F 81% 30.35 in 2.0 mi NW 3.5 mph - 0.01 in Snow Light Snow
9:00 AM 19.4 °F - 14.0 °F 80% 30.29 in 1.8 mi Calm Calm - 0.00 in Snow Light Snow
9:23 AM 19.4 °F - 14.0 °F 80% 30.28 in 1.0 mi Calm Calm - 0.01 in Snow Light Snow
9:53 AM 19.9 °F - 14.0 °F 78% 30.32 in 2.0 mi Calm Calm - 0.01 in Snow Light Snow
10:04 AM 19.4 °F - 12.2 °F 74% 30.28 in 5.0 mi Calm Calm - 0.00 in   Haze
10:53 AM 21.0 °F - 12.9 °F 71% 30.31 in 4.0 mi Calm Calm - 0.00 in   Haze
11:53 AM 21.0 °F 12.4 °F 12.0 °F 68% 30.27 in 8.0 mi Variable 6.9 mph - N/A   Overcast
12:53 PM 21.0 °F 16.2 °F 12.9 °F 71% 30.22 in 6.0 mi Variable 3.5 mph - N/A   Haze
1:53 PM 21.9 °F 15.7 °F 14.0 °F 72% 30.17 in 3.0 mi NNE 4.6 mph - 0.01 in Snow Light Snow
2:53 PM 23.0 °F - 14.0 °F 68% 30.13 in 9.0 mi Calm Calm - 0.00 in   Overcast
3:40 PM 23.0 °F 15.8 °F 12.2 °F 63% 30.08 in 1.8 mi Variable 5.8 mph 16.1 mph 0.01 in Snow Light Snow
3:53 PM 21.9 °F 12.5 °F 12.9 °F 68% 30.11 in 1.8 mi SSE 8.1 mph - 0.01 in Snow Light Snow
4:16 PM 21.2 °F 13.6 °F 14.0 °F 74% 30.05 in 0.8 mi Variable 5.8 mph - 0.00 in Snow Light Snow
4:39 PM 21.2 °F 16.4 °F 15.8 °F 80% 30.04 in 0.5 mi North 3.5 mph - 0.01 in Snow Snow
4:53 PM 21.0 °F - 16.0 °F 81% 30.08 in 0.2 mi Calm Calm - 0.02 in Snow Heavy Snow
5:00 PM 21.2 °F - 15.8 °F 80% 30.04 in 0.5 mi Calm Calm - 0.01 in Snow Snow
5:43 PM 21.2 °F 16.4 °F 15.8 °F 80% 30.02 in 1.0 mi North 3.5 mph - 0.04 in Snow Light Snow
5:53 PM 21.0 °F 13.4 °F 16.0 °F 81% 30.06 in 1.0 mi Variable 5.8 mph - 0.05 in Snow Light Snow
6:17 PM 21.2 °F 16.4 °F 15.8 °F 80% 30.01 in 1.0 mi Variable 3.5 mph - 0.00 in Snow Light Snow
6:28 PM 21.2 °F 13.6 °F 15.8 °F 80% 30.00 in 1.5 mi North 5.8 mph - 0.01 in Snow Light Snow
6:53 PM 21.0 °F 14.6 °F 15.1 °F 78% 30.03 in 1.5 mi Variable 4.6 mph - 0.01 in Snow Light Snow
7:13 PM 21.2 °F 14.9 °F 15.8 °F 80% 29.98 in 1.0 mi NNW 4.6 mph - 0.01 in Snow Light Snow
7:24 PM 21.2 °F 16.4 °F 15.8 °F 80% 29.99 in 0.8 mi North 3.5 mph - 0.02 in Snow Light Snow
7:31 PM 21.2 °F - 17.6 °F 86% 29.99 in 0.5 mi Calm Calm - 0.03 in Fog , Snow Snow
7:53 PM 21.0 °F 9.9 °F 16.0 °F 81% 30.01 in 0.5 mi NE 10.4 mph - 0.06 in Snow Snow
8:35 PM 21.2 °F 10.1 °F 15.8 °F 80% 29.95 in 0.8 mi NNE 10.4 mph - 0.03 in Snow Light Snow
8:53 PM 21.0 °F 9.9 °F 16.0 °F 81% 29.99 in 0.8 mi NNE 10.4 mph 18.4 mph 0.04 in Snow Light Snow
9:04 PM 21.2 °F 12.6 °F 15.8 °F 80% 29.94 in 0.8 mi NNE 6.9 mph - 0.01 in Snow Light Snow
9:53 PM 19.9 °F 9.3 °F 16.0 °F 85% 29.95 in 0.8 mi NE 9.2 mph - 0.06 in Snow Light Snow
10:53 PM 19.9 °F 13.4 °F 17.1 °F 89% 29.90 in 0.5 mi North 4.6 mph - 0.06 in Fog , Snow Snow
11:53 PM 19.9 °F 10.1 °F 15.1 °F 81% 29.86 in 0.8 mi North 8.1 mph - 0.06 in Snow Light Snow